Regional Weather Roundup
Issued by NWS Albany, NY

Home | Current Version | Previous Version | Graphics & Text | Print | Product List | Glossary Off
Versions: 1 2 3 4 5 6 7 8 9 10 11 12 13 14 15 16 17 18 19 20 21 22 23 24 25 26 27 28 29 30 31 32 33 34 35 36 37 38 39 40 41 42 43 44 45 46 47 48 49 50

000
ASUS41 KALY 280010
RWRALY

NEW YORK STATE HOURLY WEATHER ROUNDUP
NATIONAL WEATHER SERVICE ALBANY NY
700 PM EST SAT DEC 27 2014

NOTE: "FAIR" INDICATES FEW OR NO CLOUDS BELOW 12,000 FEET WITH NO
SIGNIFICANT WEATHER AND/OR NO OBSTRUCTIONS TO VISIBILITY.

NYZ032-033-038>043-046>054-057>066-NYZ062>081-280100-
EAST


CITY           SKY/WX    TMP DP  RH WIND       PRES   REMARKS
ALBANY         MOCLDY    45  32  60 S7        30.10R
GLENS FALLS    CLOUDY    35  31  85 CALM      30.07F
POUGHKEEPSIE   PTCLDY    39  33  79 CALM      30.14S
MONTGOMERY     PTCLDY    37  32  82 CALM      30.12S
WHITE PLAINS   MOCLDY    45  33  63 S5        30.15S
ISLIP          MOCLDY    41  36  82 CALM      30.16F
NEW YORK CITY  MOCLDY    47  37  68 S8        30.17S
CENTRAL PARK   PTCLDY    50  32  50 VRB3      30.19S
$$

NYZ005>009-017-018-044>046-055-056-280100-
CENTRAL


CITY           SKY/WX    TMP DP  RH WIND       PRES   REMARKS
FULTON         CLOUDY    52  38  58 S9        29.97F
SYRACUSE       CLOUDY    52  38  58 S6        29.99F
ROME           MOCLDY    47  36  65 E6        30.02F
ELMIRA         MOCLDY    38  34  85 SW3       30.04F
BINGHAMTON     CLOUDY    45  34  65 S7        30.04F
MONTICELLO     PTCLDY    39  32  75 CALM      30.12F
$$

NYZ026>034-041>043-280100-
NORTH


CITY           SKY/WX    TMP DP  RH WIND       PRES   REMARKS
WATERTOWN      CLOUDY    54  36  50 S12G25    29.92F
FORT DRUM      NOT AVBL
MASSENA        CLOUDY    39  37  92 CALM      29.94F
SARANAC LAKE   CLOUDY    40  34  79 SW12      29.94F WCI  33
PLATTSBURGH    CLOUDY    40  33  76 CALM      29.99F
$$

NYZ001>004-010>016-019>021-280100-
WEST


CITY           SKY/WX    TMP DP  RH WIND       PRES   REMARKS
NIAGARA FALLS  CLOUDY    50  36  58 SW21G29   29.94R
BUFFALO        CLOUDY    49  38  65 SW20      29.95R
DUNKIRK        CLOUDY    55  34  45 SW20G28   29.97S
JAMESTOWN      CLOUDY    48  34  57 S10G16    30.01R
WELLSVILLE     MOCLDY    47  35  63 SW10G20   30.01F
ROCHESTER      MOCLDY    53  39  59 S14G24    29.93F
PENN YAN       CLOUDY    49  37  63 SW12      29.99F
$$

             KEY
       WCI = WIND CHILL INDEX
       VSB = VISIBILITY
       HX  = HEAT INDEX
$$



USA.gov is the U.S. government's official web portal to all federal, state and local government web resources and services.